,

(GMT )
Al Udeid

Weather History for KQIR - March, 2013

Change the Weather History Date:

Monday, March 18, 2013

  Actual Average Record
Temperature  
Mean Temperature 78 °F -  
Max Temperature 90 °F - - ()
Min Temperature 66 °F - - ()
Cooling Degree Days 13    
Growing Degree Days 28 (Base 50)    
Moisture  
Dew Point 52 °F    
Average Humidity 44    
Maximum Humidity 86    
Minimum Humidity 17    
Precipitation  
Precipitation 0.00 in - - ()
Sea Level Pressure  
Sea Level Pressure 29.84 in    
Wind  
Wind Speed 8 mph ()    
Max Wind Speed 17 mph    
Max Gust Speed 22 mph    
Visibility 6.2 miles    
Events      
Averages and records for this station are not official NWS values.
T = Trace of Precipitation, MM = Missing Value Source: Averaged Metar Reports

Daily Weather History Graph

Daily Weather History Graph

Search for Another Location

Airport or City:

Astronomy

Mar. 18, 2013 Rise Set
Actual Time 5:40 AM +03 5:44 PM +03
Civil Twilight 5:18 AM +03 6:07 PM +03
Nautical Twilight 4:51 AM +03 6:34 PM +03
Astronomical Twilight 4:24 AM +03 7:01 PM +03
Moon 9:55 AM +03 (3/18) 11:41 PM +03 (3/18)
Length of Visible Light 12h 49m
Length of Day
12h 04m
Waxing Crescent, 37% of the Moon is Illuminated
Mar 18
Waxing Crescent
Mar 19
First Quarter
Mar 27
Full
Apr 3
Last Quarter
Apr 10
New

Hourly Weather History & Observations

Time (+03) Temp. Heat Index Dew Point Humidity Pressure Visibility Wind Dir Wind Speed Gust Speed Precip Events Conditions
12:55 AM 70.2 °F - 57.7 °F 65% 29.85 in 6.2 mi East 10.4 mph - N/A   Clear
1:55 AM 71.1 °F - 58.5 °F 64% 29.84 in 6.2 mi East 8.1 mph - N/A   Clear
2:55 AM 68.7 °F - 58.6 °F 70% 29.84 in 6.2 mi East 5.8 mph - N/A   Clear
3:55 AM 66.9 °F - 59.7 °F 78% 29.83 in 6.2 mi East 6.9 mph - N/A   Clear
4:55 AM 67.3 °F - 62.4 °F 84% 29.84 in 6.2 mi East 10.4 mph - N/A   Clear
5:55 AM 67.8 °F - 63.5 °F 86% 29.87 in 6.2 mi East 9.2 mph - N/A   Clear
6:55 AM 69.4 °F - 63.7 °F 82% 29.90 in 6.2 mi East 5.8 mph - N/A   Clear
7:55 AM 74.3 °F - 64.0 °F 70% 29.92 in 6.2 mi SE 5.8 mph - N/A   Clear
8:55 AM 82.2 °F 81.8 °F 56.3 °F 41% 29.93 in 6.2 mi SE 9.2 mph - N/A   Clear
9:55 AM 86.5 °F - 48.9 °F 27% 29.92 in 6.2 mi SSE 12.7 mph - N/A   Partly Cloudy
10:55 AM 88.5 °F - 47.1 °F 24% 29.91 in 6.2 mi SSE 10.4 mph 17.3 mph N/A   Clear
11:55 AM 90.3 °F - 44.8 °F 21% 29.87 in 6.2 mi South 15.0 mph 21.9 mph N/A   Partly Cloudy
12:55 PM 90.9 °F - 42.4 °F 19% 29.83 in 6.2 mi SE 11.5 mph - N/A   Clear
1:55 PM 90.7 °F - 39.6 °F 17% 29.81 in 6.2 mi SE 12.7 mph 19.6 mph N/A   Partly Cloudy
2:55 PM 90.7 °F - 39.4 °F 17% 29.79 in 6.2 mi SE 17.3 mph - N/A   Clear
3:55 PM 89.1 °F - 38.8 °F 17% 29.79 in 6.2 mi ESE 12.7 mph - N/A   Clear
4:55 PM 87.8 °F - 39.9 °F 19% 29.79 in 6.2 mi ESE 10.4 mph - N/A   Clear
5:55 PM 85.3 °F - 40.8 °F 21% 29.78 in 6.2 mi East 10.4 mph - N/A   Clear
6:55 PM 80.2 °F - 52.9 °F 39% 29.78 in 6.2 mi East 10.4 mph - N/A   Clear
7:55 PM 79.3 °F - 50.7 °F 37% 29.79 in 6.2 mi East 9.2 mph - N/A   Clear
8:55 PM 78.3 °F - 49.5 °F 36% 29.80 in 6.2 mi East 9.2 mph - N/A   Clear
9:55 PM 77.4 °F - 50.2 °F 38% 29.80 in 6.2 mi East 5.8 mph - N/A   Clear
10:55 PM 76.8 °F - 53.2 °F 44% 29.78 in 6.2 mi East 8.1 mph - N/A   Clear
11:55 PM 75.4 °F - 55.4 °F 50% 29.78 in 6.2 mi Calm Calm - N/A   Clear